Time,TemperatureF,DewpointF,PressureIn,WindDirection,WindDirectionDegrees,WindSpeedMPH,WindSpeedGustMPH,Humidity,HourlyPrecipIn,Conditions,Clouds,dailyrainin,SoftwareType,DateUTC
2013-07-30 00:01:00,63.1,60.4,30.17,NNE,23,0.0,0.0,91,0.00,CLR,,0.00,WeatherDisplay:10.37,2013-07-30 04:01:00,
2013-07-30 00:10:00,62.9,60.2,30.18,NNE,23,0.0,0.0,91,0.00,CLR,,0.00,WeatherDisplay:10.37,2013-07-30 04:10:00,
2013-07-30 00:20:00,62.6,60.2,30.17,NNE,23,0.0,0.0,92,0.00,CLR,,0.00,WeatherDisplay:10.37,2013-07-30 04:20:00,
2013-07-30 00:31:00,62.3,59.9,30.17,NNE,23,0.0,0.0,92,0.00,CLR,,0.00,WeatherDisplay:10.37,2013-07-30 04:31:00,
2013-07-30 00:40:00,62.1,59.7,30.17,NNE,23,0.0,0.0,92,0.00,CLR,,0.00,WeatherDisplay:10.37,2013-07-30 04:40:00,
2013-07-30 00:50:00,61.9,59.5,30.17,NNE,23,0.0,0.0,92,0.00,CLR,,0.00,WeatherDisplay:10.37,2013-07-30 04:50:00,
2013-07-30 01:01:00,61.7,59.7,30.16,NNE,23,0.0,0.0,93,0.00,CLR,,0.00,WeatherDisplay:10.37,2013-07-30 05:01:00,
2013-07-30 01:10:00,61.6,59.3,30.16,NNE,23,0.0,0.0,92,0.00,CLR,,0.00,WeatherDisplay:10.37,2013-07-30 05:10:00,
2013-07-30 01:20:00,61.4,59.1,30.16,NNE,23,0.0,0.0,92,0.00,CLR,,0.00,WeatherDisplay:10.37,2013-07-30 05:20:00,
2013-07-30 01:31:00,61.3,59.0,30.16,NNE,23,0.0,0.0,92,0.00,CLR,,0.00,WeatherDisplay:10.37,2013-07-30 05:31:00,
2013-07-30 01:40:00,61.2,58.9,30.16,NNE,23,0.0,0.0,92,0.00,CLR,,0.00,WeatherDisplay:10.37,2013-07-30 05:40:00,
2013-07-30 01:50:00,61.1,59.1,30.16,NNE,23,0.0,0.0,93,0.00,CLR,,0.00,WeatherDisplay:10.37,2013-07-30 05:50:00,
2013-07-30 02:01:00,61.0,59.0,30.15,NNE,23,0.0,0.0,93,0.00,CLR,,0.00,WeatherDisplay:10.37,2013-07-30 06:01:00,
2013-07-30 02:10:00,61.0,59.3,30.15,NNE,23,0.0,0.0,94,0.00,CLR,,0.00,WeatherDisplay:10.37,2013-07-30 06:10:00,
2013-07-30 02:20:00,61.0,59.3,30.15,NNE,23,0.0,0.0,94,0.00,CLR,,0.00,WeatherDisplay:10.37,2013-07-30 06:20:00,
2013-07-30 02:31:00,60.9,59.2,30.15,NNE,23,0.0,0.0,94,0.00,CLR,,0.00,WeatherDisplay:10.37,2013-07-30 06:31:00,
2013-07-30 02:40:00,60.7,59.0,30.15,NNE,23,0.0,0.0,94,0.00,CLR,,0.00,WeatherDisplay:10.37,2013-07-30 06:40:00,
2013-07-30 02:50:00,60.6,58.9,30.15,NNE,23,0.0,0.0,94,0.00,CLR,,0.00,WeatherDisplay:10.37,2013-07-30 06:50:00,
2013-07-30 03:01:00,60.6,58.8,30.15,NNE,23,0.0,0.0,94,0.00,CLR,,0.00,WeatherDisplay:10.37,2013-07-30 07:01:00,
2013-07-30 03:10:00,60.4,59.0,30.15,NNE,23,0.0,0.0,95,0.00,CLR,,0.00,WeatherDisplay:10.37,2013-07-30 07:10:00,
2013-07-30 03:20:00,60.4,59.0,30.15,NNE,23,0.0,0.0,95,0.00,CLR,,0.00,WeatherDisplay:10.37,2013-07-30 07:20:00,
2013-07-30 03:31:00,60.3,58.9,30.15,NNE,23,0.0,0.0,95,0.00,CLR,,0.00,WeatherDisplay:10.37,2013-07-30 07:31:00,
2013-07-30 03:40:00,60.2,58.8,30.15,NNE,23,0.0,0.0,95,0.00,CLR,,0.00,WeatherDisplay:10.37,2013-07-30 07:40:00,
2013-07-30 03:50:00,60.2,58.8,30.15,NNE,23,0.0,0.0,95,0.00,CLR,,0.00,WeatherDisplay:10.37,2013-07-30 07:50:00,
2013-07-30 04:01:00,60.1,58.7,30.15,NNE,23,0.0,0.0,95,0.00,CLR,,0.00,WeatherDisplay:10.37,2013-07-30 08:01:00,
2013-07-30 04:10:00,60.1,58.7,30.15,NNE,23,0.0,0.0,95,0.00,CLR,,0.00,WeatherDisplay:10.37,2013-07-30 08:10:00,
2013-07-30 04:20:00,60.0,58.9,30.15,NNE,23,0.0,0.0,96,0.00,CLR,,0.00,WeatherDisplay:10.37,2013-07-30 08:20:00,
2013-07-30 04:31:00,59.9,58.8,30.15,NNE,23,0.0,0.0,96,0.00,CLR,,0.00,WeatherDisplay:10.37,2013-07-30 08:31:00,
2013-07-30 04:40:00,59.9,58.8,30.15,NNE,23,0.0,0.0,96,0.00,CLR,,0.00,WeatherDisplay:10.37,2013-07-30 08:40:00,
2013-07-30 04:50:00,60.0,58.9,30.16,NNE,23,0.0,0.0,96,0.00,CLR,,0.00,WeatherDisplay:10.37,2013-07-30 08:50:00,
2013-07-30 05:01:00,60.0,58.9,30.16,NNE,23,0.0,0.0,96,0.00,CLR,,0.00,WeatherDisplay:10.37,2013-07-30 09:01:00,
2013-07-30 05:10:00,60.2,59.1,30.17,NNE,23,0.0,0.0,96,0.00,CLR,,0.00,WeatherDisplay:10.37,2013-07-30 09:10:00,
2013-07-30 05:20:00,60.3,59.2,30.17,NNE,23,0.0,0.0,96,0.00,CLR,,0.00,WeatherDisplay:10.37,2013-07-30 09:20:00,
2013-07-30 05:31:00,60.5,59.6,30.17,NNE,23,0.0,0.0,97,0.00,CLR,,0.00,WeatherDisplay:10.37,2013-07-30 09:31:00,
2013-07-30 05:40:00,60.6,59.7,30.18,NNE,23,0.0,0.0,97,0.00,CLR,,0.00,WeatherDisplay:10.37,2013-07-30 09:40:00,
2013-07-30 05:50:00,60.8,59.9,30.18,NNE,23,0.0,0.0,97,0.00,CLR,,0.00,WeatherDisplay:10.37,2013-07-30 09:50:00,
2013-07-30 06:01:00,60.8,59.9,30.18,NNE,23,0.0,0.0,97,0.00,CLR,,0.00,WeatherDisplay:10.37,2013-07-30 10:01:00,
2013-07-30 06:10:00,60.7,59.6,30.18,NNE,23,0.0,0.0,96,0.00,CLR,,0.00,WeatherDisplay:10.37,2013-07-30 10:10:00,
2013-07-30 06:20:00,60.5,59.4,30.19,NNE,23,0.0,0.0,96,0.00,CLR,,0.00,WeatherDisplay:10.37,2013-07-30 10:20:00,
2013-07-30 06:31:00,60.5,59.3,30.19,NNE,23,0.0,0.0,96,0.00,CLR,,0.00,WeatherDisplay:10.37,2013-07-30 10:31:00,
2013-07-30 06:40:00,60.3,59.2,30.19,NNE,23,0.0,0.0,96,0.00,CLR,,0.00,WeatherDisplay:10.37,2013-07-30 10:40:00,
2013-07-30 06:50:00,60.2,59.1,30.19,NNE,23,0.0,0.0,96,0.00,CLR,,0.00,WeatherDisplay:10.37,2013-07-30 10:50:00,
2013-07-30 07:01:00,60.1,59.0,30.19,NNE,23,0.0,0.0,96,0.00,CLR,,0.00,WeatherDisplay:10.37,2013-07-30 11:01:00,
2013-07-30 07:10:00,60.0,59.1,30.19,NNE,23,0.0,0.0,97,0.00,CLR,,0.00,WeatherDisplay:10.37,2013-07-30 11:10:00,
2013-07-30 07:20:00,60.0,59.1,30.19,NNE,23,0.0,0.0,97,0.00,CLR,,0.00,WeatherDisplay:10.37,2013-07-30 11:20:00,
2013-07-30 07:31:00,60.0,59.2,30.20,NNE,23,0.0,0.0,97,0.00,CLR,,0.00,WeatherDisplay:10.37,2013-07-30 11:31:00,
2013-07-30 07:40:00,60.2,59.3,30.20,NNE,18,0.0,1.0,97,0.00,CLR,,0.00,WeatherDisplay:10.37,2013-07-30 11:40:00,
2013-07-30 07:50:00,60.4,59.5,30.20,SW,232,0.0,0.0,97,0.00,CLR,,0.00,WeatherDisplay:10.37,2013-07-30 11:50:00,
2013-07-30 08:01:00,61.0,60.2,30.21,SW,232,0.0,0.0,97,0.00,CLR,,0.00,WeatherDisplay:10.37,2013-07-30 12:01:00,
2013-07-30 08:10:00,61.9,61.3,30.21,SW,232,0.0,0.0,98,0.00,CLR,,0.00,WeatherDisplay:10.37,2013-07-30 12:10:00,
2013-07-30 08:20:00,62.5,61.7,30.22,SW,232,0.0,0.0,97,0.00,CLR,,0.00,WeatherDisplay:10.37,2013-07-30 12:20:00,
2013-07-30 08:31:00,63.1,62.2,30.22,SW,232,0.0,0.0,97,0.00,CLR,,0.00,WeatherDisplay:10.37,2013-07-30 12:31:00,
2013-07-30 08:40:00,63.9,62.8,30.22,SW,232,0.0,0.0,96,0.00,CLR,,0.00,WeatherDisplay:10.37,2013-07-30 12:40:00,
2013-07-30 08:50:00,65.1,63.7,30.23,SW,236,0.0,0.0,95,0.00,CLR,,0.00,WeatherDisplay:10.37,2013-07-30 12:50:00,
2013-07-30 09:01:00,66.6,63.9,30.22,West,269,0.0,0.0,91,0.00,CLR,,0.00,WeatherDisplay:10.37,2013-07-30 13:01:00,
2013-07-30 09:10:00,67.8,64.1,30.23,West,269,0.0,0.0,88,0.00,CLR,,0.00,WeatherDisplay:10.37,2013-07-30 13:10:00,
2013-07-30 09:20:00,69.1,64.7,30.23,SW,227,0.0,0.0,86,0.00,CLR,,0.00,WeatherDisplay:10.37,2013-07-30 13:20:00,
2013-07-30 09:31:00,70.5,65.1,30.23,SE,124,0.0,0.0,83,0.00,CLR,,0.00,WeatherDisplay:10.37,2013-07-30 13:31:00,
2013-07-30 09:40:00,71.8,65.7,30.22,WSW,258,0.0,0.0,81,0.00,CLR,,0.00,WeatherDisplay:10.37,2013-07-30 13:40:00,
2013-07-30 09:50:00,72.4,64.8,30.22,SSW,196,0.0,0.0,77,0.00,CLR,,0.00,WeatherDisplay:10.37,2013-07-30 13:50:00,
2013-07-30 10:01:00,73.0,65.4,30.21,NE,49,0.0,1.0,77,0.00,CLR,,0.00,WeatherDisplay:10.37,2013-07-30 14:01:00,
2013-07-30 10:10:00,73.4,66.2,30.21,NE,44,0.0,0.0,78,0.00,CLR,,0.00,WeatherDisplay:10.37,2013-07-30 14:10:00,
2013-07-30 10:20:00,73.6,66.3,30.20,NE,55,0.0,0.0,78,0.00,CLR,,0.00,WeatherDisplay:10.37,2013-07-30 14:20:00,
2013-07-30 10:31:00,74.0,66.3,30.20,NE,44,0.0,0.0,77,0.00,CLR,,0.00,WeatherDisplay:10.37,2013-07-30 14:31:00,
2013-07-30 10:40:00,74.2,66.6,30.19,NE,40,0.0,1.0,77,0.00,CLR,,0.00,WeatherDisplay:10.37,2013-07-30 14:40:00,
2013-07-30 10:50:00,74.6,66.5,30.20,NE,40,0.0,0.0,76,0.00,CLR,,0.00,WeatherDisplay:10.37,2013-07-30 14:50:00,
2013-07-30 11:01:00,74.9,66.8,30.19,NE,40,0.0,0.0,76,0.00,CLR,,0.00,WeatherDisplay:10.37,2013-07-30 15:01:00,
2013-07-30 11:10:00,75.4,66.1,30.19,NE,41,0.0,0.0,73,0.00,CLR,,0.00,WeatherDisplay:10.37,2013-07-30 15:10:00,
2013-07-30 11:20:00,76.1,66.8,30.19,NE,41,0.0,0.0,73,0.00,CLR,,0.00,WeatherDisplay:10.37,2013-07-30 15:20:00,
2013-07-30 11:31:00,76.5,67.6,30.19,NE,41,0.0,0.0,74,0.00,CLR,,0.00,WeatherDisplay:10.37,2013-07-30 15:31:00,
2013-07-30 11:40:00,77.2,67.0,30.19,NE,41,0.0,0.0,71,0.00,CLR,,0.00,WeatherDisplay:10.37,2013-07-30 15:40:00,
2013-07-30 11:50:00,77.9,67.3,30.19,NE,41,0.0,0.0,70,0.00,CLR,,0.00,WeatherDisplay:10.37,2013-07-30 15:50:00,
2013-07-30 12:01:00,78.7,68.9,30.18,ENE,74,0.0,0.0,72,0.00,CLR,,0.00,WeatherDisplay:10.37,2013-07-30 16:01:00,
2013-07-30 12:10:00,78.9,67.5,30.19,NE,49,0.0,0.0,68,0.00,CLR,,0.00,WeatherDisplay:10.37,2013-07-30 16:10:00,
2013-07-30 12:20:00,79.4,67.5,30.19,NE,44,0.0,0.0,67,0.00,CLR,,0.00,WeatherDisplay:10.37,2013-07-30 16:20:00,
2013-07-30 12:31:00,79.9,67.6,30.18,NNE,33,0.0,0.0,66,0.00,CLR,,0.00,WeatherDisplay:10.37,2013-07-30 16:31:00,
2013-07-30 12:40:00,80.1,66.4,30.18,NE,43,0.0,0.0,63,0.00,CLR,,0.00,WeatherDisplay:10.37,2013-07-30 16:40:00,
2013-07-30 12:50:00,80.6,66.4,30.18,NE,44,0.0,0.0,62,0.00,CLR,,0.00,WeatherDisplay:10.37,2013-07-30 16:50:00,
2013-07-30 13:01:00,81.0,65.8,30.18,East,82,0.0,0.0,60,0.00,CLR,,0.00,WeatherDisplay:10.37,2013-07-30 17:01:00,
2013-07-30 13:10:00,81.3,66.5,30.17,SE,128,0.0,0.0,61,0.00,CLR,,0.00,WeatherDisplay:10.37,2013-07-30 17:10:00,
2013-07-30 13:20:00,82.0,65.8,30.17,ESE,112,0.0,0.0,58,0.00,CLR,,0.00,WeatherDisplay:10.37,2013-07-30 17:20:00,
2013-07-30 13:31:00,82.6,65.8,30.17,ESE,112,0.0,0.0,57,0.00,CLR,,0.00,WeatherDisplay:10.37,2013-07-30 17:31:00,
2013-07-30 13:40:00,83.3,69.4,30.17,SE,136,0.0,0.0,63,0.00,CLR,,0.00,WeatherDisplay:10.37,2013-07-30 17:40:00,
2013-07-30 13:50:00,83.5,67.2,30.17,SE,135,0.0,0.0,58,0.00,CLR,,0.00,WeatherDisplay:10.37,2013-07-30 17:50:00,
2013-07-30 14:01:00,83.6,67.3,30.16,SE,132,0.0,0.0,58,0.00,CLR,,0.00,WeatherDisplay:10.37,2013-07-30 18:01:00,
2013-07-30 14:10:00,83.9,64.4,30.16,SE,131,0.0,0.0,52,0.00,CLR,,0.00,WeatherDisplay:10.37,2013-07-30 18:10:00,
2013-07-30 14:20:00,84.3,67.4,30.16,SE,130,0.0,0.0,57,0.00,CLR,,0.00,WeatherDisplay:10.37,2013-07-30 18:20:00,
2013-07-30 14:31:00,84.3,64.7,30.15,SE,134,0.0,0.0,52,0.00,CLR,,0.00,WeatherDisplay:10.37,2013-07-30 18:31:00,
2013-07-30 14:40:00,84.4,65.4,30.15,SE,125,0.0,0.0,53,0.00,CLR,,0.00,WeatherDisplay:10.37,2013-07-30 18:40:00,
2013-07-30 14:50:00,84.9,66.4,30.15,ESE,102,0.0,0.0,54,0.00,CLR,,0.00,WeatherDisplay:10.37,2013-07-30 18:50:00,
2013-07-30 15:01:00,85.1,68.1,30.14,SE,129,0.0,0.0,57,0.00,CLR,,0.00,WeatherDisplay:10.37,2013-07-30 19:01:00,
2013-07-30 15:10:00,85.6,68.6,30.14,ESE,123,0.0,0.0,57,0.00,CLR,,0.00,WeatherDisplay:10.37,2013-07-30 19:10:00,
2013-07-30 15:20:00,86.6,66.9,30.14,SE,136,0.0,0.0,52,0.00,CLR,,0.00,WeatherDisplay:10.37,2013-07-30 19:20:00,
2013-07-30 15:31:00,87.0,64.9,30.14,SE,140,0.0,0.0,48,0.00,CLR,,0.00,WeatherDisplay:10.37,2013-07-30 19:31:00,
2013-07-30 15:40:00,86.9,64.2,30.14,SE,140,0.0,0.0,47,0.00,CLR,,0.00,WeatherDisplay:10.37,2013-07-30 19:40:00,
2013-07-30 15:50:00,87.4,65.3,30.13,SE,140,0.0,0.0,48,0.00,CLR,,0.00,WeatherDisplay:10.37,2013-07-30 19:50:00,
2013-07-30 16:01:00,87.5,66.0,30.13,SE,140,0.0,0.0,49,0.00,CLR,,0.00,WeatherDisplay:10.37,2013-07-30 20:01:00,
2013-07-30 16:10:00,87.5,68.8,30.13,SE,140,0.0,0.0,54,0.00,CLR,,0.00,WeatherDisplay:10.37,2013-07-30 20:10:00,
2013-07-30 16:20:00,87.2,66.9,30.12,SE,140,0.0,0.0,51,0.00,CLR,,0.00,WeatherDisplay:10.37,2013-07-30 20:20:00,
2013-07-30 16:31:00,87.7,67.9,30.12,SE,140,0.0,0.0,52,0.00,CLR,,0.00,WeatherDisplay:10.37,2013-07-30 20:31:00,
2013-07-30 16:40:00,88.1,69.4,30.12,SE,140,0.0,0.0,54,0.00,CLR,,0.00,WeatherDisplay:10.37,2013-07-30 20:40:00,
2013-07-30 16:50:00,88.3,67.3,30.12,SE,140,0.0,0.0,50,0.00,CLR,,0.00,WeatherDisplay:10.37,2013-07-30 20:50:00,
2013-07-30 17:01:00,87.6,67.8,30.11,SE,140,0.0,0.0,52,0.00,CLR,,0.00,WeatherDisplay:10.37,2013-07-30 21:01:00,
2013-07-30 17:10:00,87.0,68.9,30.11,SE,140,0.0,0.0,55,0.00,CLR,,0.00,WeatherDisplay:10.37,2013-07-30 21:10:00,
2013-07-30 17:20:00,86.3,70.8,30.11,SE,140,0.0,0.0,60,0.00,CLR,,0.00,WeatherDisplay:10.37,2013-07-30 21:20:00,
2013-07-30 17:31:00,85.4,70.4,30.11,SE,140,0.0,0.0,61,0.00,CLR,,0.00,WeatherDisplay:10.37,2013-07-30 21:31:00,
2013-07-30 17:40:00,84.4,70.0,30.11,SE,140,0.0,0.0,62,0.00,CLR,,0.00,WeatherDisplay:10.37,2013-07-30 21:40:00,
2013-07-30 17:50:00,83.1,71.4,30.10,SE,140,0.0,0.0,68,0.00,CLR,,0.00,WeatherDisplay:10.37,2013-07-30 21:50:00,
2013-07-30 18:01:00,82.3,71.9,30.10,SE,140,0.0,0.0,71,0.00,CLR,,0.00,WeatherDisplay:10.37,2013-07-30 22:01:00,
2013-07-30 18:10:00,81.8,72.3,30.10,SE,140,0.0,0.0,73,0.00,CLR,,0.00,WeatherDisplay:10.37,2013-07-30 22:10:00,
2013-07-30 18:20:00,81.4,71.9,30.10,SE,140,0.0,0.0,73,0.00,CLR,,0.00,WeatherDisplay:10.37,2013-07-30 22:20:00,
2013-07-30 18:31:00,81.2,71.8,30.10,SE,140,0.0,0.0,73,0.00,CLR,,0.00,WeatherDisplay:10.37,2013-07-30 22:31:00,
2013-07-30 18:40:00,81.4,72.7,30.10,SE,140,0.0,0.0,75,0.00,CLR,,0.00,WeatherDisplay:10.37,2013-07-30 22:40:00,
2013-07-30 18:50:00,81.3,71.0,30.09,SE,140,0.0,0.0,71,0.00,CLR,,0.00,WeatherDisplay:10.37,2013-07-30 22:50:00,
2013-07-30 19:01:00,81.0,71.1,30.09,SE,140,0.0,0.0,72,0.00,CLR,,0.00,WeatherDisplay:10.37,2013-07-30 23:01:00,
2013-07-30 19:10:00,80.5,70.6,30.09,SE,140,0.0,0.0,72,0.00,CLR,,0.00,WeatherDisplay:10.37,2013-07-30 23:10:00,
2013-07-30 19:20:00,80.0,71.4,30.09,SE,140,0.0,0.0,75,0.00,CLR,,0.00,WeatherDisplay:10.37,2013-07-30 23:20:00,
2013-07-30 19:31:00,79.4,70.4,30.09,SE,140,0.0,0.0,74,0.00,CLR,,0.00,WeatherDisplay:10.37,2013-07-30 23:31:00,
2013-07-30 19:40:00,78.9,71.1,30.09,SE,140,0.0,0.0,77,0.00,CLR,,0.00,WeatherDisplay:10.37,2013-07-30 23:40:00,
2013-07-30 19:50:00,78.5,71.1,30.09,SE,140,0.0,0.0,78,0.00,CLR,,0.00,WeatherDisplay:10.37,2013-07-30 23:50:00,
2013-07-30 20:01:00,78.2,71.5,30.09,SE,140,0.0,0.0,80,0.00,CLR,,0.00,WeatherDisplay:10.37,2013-07-31 00:01:00,
2013-07-30 20:10:00,77.9,71.2,30.09,SE,140,0.0,0.0,80,0.00,CLR,,0.00,WeatherDisplay:10.37,2013-07-31 00:10:00,
2013-07-30 20:20:00,77.5,71.2,30.09,SE,141,0.0,0.0,81,0.00,CLR,,0.00,WeatherDisplay:10.37,2013-07-31 00:20:00,
2013-07-30 20:31:00,76.9,71.0,30.10,SE,141,0.0,0.0,82,0.00,CLR,,0.00,WeatherDisplay:10.37,2013-07-31 00:31:00,
2013-07-30 20:40:00,76.4,70.5,30.10,SE,141,0.0,0.0,82,0.00,CLR,,0.00,WeatherDisplay:10.37,2013-07-31 00:40:00,
2013-07-30 20:50:00,75.9,70.0,30.09,SE,141,0.0,0.0,82,0.00,CLR,,0.00,WeatherDisplay:10.37,2013-07-31 00:50:00,
2013-07-30 21:01:00,75.5,70.0,30.10,SE,141,0.0,0.0,83,0.00,CLR,,0.00,WeatherDisplay:10.37,2013-07-31 01:01:00,
2013-07-30 21:10:00,75.0,69.5,30.10,SE,141,0.0,0.0,83,0.00,CLR,,0.00,WeatherDisplay:10.37,2013-07-31 01:10:00,
2013-07-30 21:20:00,74.7,69.9,30.09,SE,141,0.0,0.0,85,0.00,CLR,,0.00,WeatherDisplay:10.37,2013-07-31 01:20:00,
2013-07-30 21:31:00,74.4,69.6,30.10,SE,141,0.0,0.0,85,0.00,CLR,,0.00,WeatherDisplay:10.37,2013-07-31 01:31:00,
2013-07-30 21:40:00,74.1,69.3,30.10,SE,141,0.0,0.0,85,0.00,CLR,,0.00,WeatherDisplay:10.37,2013-07-31 01:40:00,
2013-07-30 21:50:00,73.8,69.0,30.11,SE,141,0.0,0.0,85,0.00,CLR,,0.00,WeatherDisplay:10.37,2013-07-31 01:50:00,
2013-07-30 22:01:00,73.6,69.1,30.11,SE,141,0.0,0.0,86,0.00,CLR,,0.00,WeatherDisplay:10.37,2013-07-31 02:01:00,
2013-07-30 22:10:00,73.4,69.3,30.11,SE,141,0.0,0.0,87,0.00,CLR,,0.00,WeatherDisplay:10.37,2013-07-31 02:10:00,
2013-07-30 22:20:00,73.2,69.1,30.12,SE,141,0.0,0.0,87,0.00,CLR,,0.00,WeatherDisplay:10.37,2013-07-31 02:20:00,
2013-07-30 22:31:00,73.0,68.9,30.12,SE,141,0.0,0.0,87,0.00,CLR,,0.00,WeatherDisplay:10.37,2013-07-31 02:31:00,
2013-07-30 22:40:00,72.8,68.7,30.12,SE,141,0.0,0.0,87,0.00,CLR,,0.00,WeatherDisplay:10.37,2013-07-31 02:40:00,
2013-07-30 22:50:00,72.8,69.0,30.13,SE,141,0.0,0.0,88,0.00,CLR,,0.00,WeatherDisplay:10.37,2013-07-31 02:50:00,
2013-07-30 23:01:00,72.6,68.9,30.13,SE,141,0.0,0.0,88,0.00,CLR,,0.00,WeatherDisplay:10.37,2013-07-31 03:01:00,
2013-07-30 23:10:00,72.7,69.2,30.13,SE,141,0.0,0.0,89,0.00,SCT,,0.00,WeatherDisplay:10.37,2013-07-31 03:10:00,
2013-07-30 23:20:00,72.6,69.2,30.13,SE,141,0.0,0.0,89,0.00,SCT,,0.00,WeatherDisplay:10.37,2013-07-31 03:20:00,
2013-07-30 23:31:00,72.5,69.4,30.13,SE,141,0.0,0.0,90,0.00,SCT,,0.00,WeatherDisplay:10.37,2013-07-31 03:31:00,
2013-07-30 23:40:00,72.3,69.5,30.12,SE,141,0.0,0.0,91,0.00,SCT,,0.00,WeatherDisplay:10.37,2013-07-31 03:40:00,
2013-07-30 23:50:00,72.1,69.6,30.12,SE,141,0.0,0.0,92,0.00,BKN,,0.00,WeatherDisplay:10.37,2013-07-31 03:50:00,